Wind_Speed
3 3 3 2 2 1 1 1 1 1 1 1 1 1 1 2 2 3 3 3 3 3 3 3 4 4 5 5 5 5 5 5 6 6 6 6 7 8 8 9 9 10 10 10 10 10 10 10 9
3 2 2 2 2 1 1 1 1 1 1 1 2 2 2 3 3 4 4 4 4 4 4 4 4 4 5 5 5 5 6 6 5 5 5 6 6 7 8 8 9 9 10 10 10 10 10 10 10
2 2 2 1 2 1 2 2 1 2 2 2 2 3 3 3 4 4 5 5 5 5 5 5 4 4 4 5 5 6 6 5 5 6 6 6 7 7 7 8 9 9 10 10 11 11 11 11 11
2 2 2 1 1 1 2 2 2 2 3 3 3 3 3 3 4 4 5 5 5 5 5 5 5 5 5 4 4 4 5 6 6 6 6 7 7 8 8 8 8 9 10 10 10 10 10 11 11
2 2 2 1 1 2 2 3 3 3 3 3 3 3 4 3 4 4 5 5 5 5 5 5 5 5 5 5 4 4 5 5 6 6 6 7 8 8 9 10 9 10 10 10 11 11 11 11 12
2 2 2 1 2 3 3 3 3 3 4 4 4 4 4 4 4 5 5 5 6 5 6 5 5 5 5 4 4 5 5 5 6 6 6 7 8 9 9 10 10 10 11 11 11 11 12 11 12
2 2 2 2 2 3 3 4 3 4 4 4 5 5 4 4 5 5 5 6 6 6 5 5 5 5 5 5 5 5 5 6 6 7 7 7 8 9 9 10 10 10 11 10 11 11 12 12 12
2 2 2 2 3 3 4 4 4 4 4 5 5 5 5 5 5 5 5 5 5 5 6 6 5 5 5 5 5 5 6 6 6 7 7 8 8 8 9 9 9 10 10 10 10 11 12 12 12
2 2 2 3 3 4 4 4 4 4 4 4 4 4 5 5 5 5 5 5 5 6 6 6 6 5 5 5 6 6 6 7 7 7 7 8 8 8 8 8 9 9 9 9 10 10 11 12 11
2 3 3 3 4 4 4 4 4 4 4 4 4 4 4 4 4 5 5 5 6 6 6 6 6 6 6 6 6 6 6 6 6 7 7 7 7 8 8 8 8 8 9 10 10 11 11 11 11
3 3 4 4 4 4 4 4 3 3 4 4 4 4 4 5 5 5 5 6 6 6 7 6 6 6 6 6 6 6 6 6 6 6 6 7 7 8 8 8 8 8 9 10 10 11 11 11 10
3 4 4 4 4 4 3 4 3 3 3 4 4 4 4 5 5 5 6 6 6 7 7 7 7 7 7 6 6 7 7 7 7 7 7 7 7 7 8 9 9 9 9 10 10 10 10 10 10
3 4 4 4 4 4 3 4 4 4 4 4 4 5 5 6 6 6 6 6 7 7 7 7 7 7 7 6 6 6 6 7 7 7 7 7 7 7 8 8 8 9 9 9 9 9 9 9 9
3 4 4 3 3 3 3 4 4 4 4 5 5 6 6 6 6 6 6 6 6 7 7 7 7 7 7 7 6 7 7 7 7 7 7 7 7 8 7 7 8 8 8 8 9 9 8 9 9
4 4 4 4 4 4 4 4 5 5 5 6 6 6 6 6 6 6 6 6 6 6 6 6 7 7 7 7 7 7 7 7 7 7 7 6 7 7 7 7 7 8 9 8 8 9 8 9 9
5 5 5 5 5 5 5 5 6 6 6 6 6 6 6 6 6 6 6 7 7 7 7 7 7 8 8 7 7 7 7 7 7 7 6 6 6 7 7 7 7 8 8 8 8 8 8 8 9
6 6 6 5 5 5 6 6 6 6 6 6 6 6 7 6 6 6 6 7 7 7 7 7 8 8 8 7 7 7 7 6 6 6 6 6 6 7 7 8 8 7 7 7 7 8 8 9 10
7 6 6 6 6 6 6 7 7 7 7 7 6 6 6 6 6 6 7 7 7 7 8 8 8 8 8 7 7 7 7 7 6 6 6 7 7 8 8 8 8 7 7 8 8 9 9 10 10
8 7 7 7 7 6 7 7 8 8 7 7 6 7 7 7 7 7 7 7 7 7 8 8 8 8 7 7 7 7 7 7 7 7 7 8 8 8 8 8 8 8 8 8 8 9 10 10 10
9 9 8 8 8 8 8 8 8 8 8 7 7 7 7 7 7 7 7 8 8 8 8 8 9 8 8 8 8 8 8 8 8 7 8 8 9 9 9 8 8 9 9 9 9 9 9 10 11
11 10 10 10 9 9 10 9 9 9 9 8 7 7 7 8 8 7 8 8 8 8 9 9 9 9 9 9 10 9 8 8 8 8 9 9 9 10 10 10 10 9 9 9 10 10 9 9 10
11 10 10 10 10 10 10 10 9 9 9 9 9 8 8 8 8 8 9 9 9 9 9 9 9 10 10 10 10 10 9 9 9 9 10 10 10 10 11 11 10 10 9 9 9 9 9 9 9
11 11 11 11 11 11 11 11 10 10 10 10 10 9 9 9 9 9 10 10 10 10 10 10 10 11 11 11 11 10 10 10 10 10 11 11 11 11 11 10 10 10 9 9 9 9 9 8 8
12 11 11 11 11 11 10 11 10 11 11 11 11 11 10 11 10 10 11 11 11 11 11 11 11 11 11 11 11 11 11 11 11 11 11 11 11 11 11 10 10 10 9 9 9 9 9 9 9
12 12 12 11 11 12 12 12 12 11 12 12 12 12 11 11 11 11 11 11 11 12 12 12 12 12 12 12 12 12 12 12 12 12 12 12 12 12 11 11 11 10 10 9 10 10 9 9 8
12 12 13 13 13 13 13 13 13 12 13 13 13 12 12 11 12 12 12 12 12 13 13 13 13 13 13 13 13 13 13 13 13 13 13 13 13 13 12 12 12 11 10 10 10 10 10 9 9
13 13 14 14 14 15 14 13 13 13 13 13 13 13 13 12 13 13 13 13 13 14 14 14 14 14 14 14 14 14 14 14 14 13 14 14 14 13 13 13 12 11 11 11 11 11 11 11 10
15 15 15 15 16 16 15 14 15 15 14 14 14 15 15 14 13 14 14 14 14 15 15 14 14 14 14 14 14 15 15 15 15 15 15 15 14 14 13 13 12 12 11 11 11 11 11 11 11
17 17 17 17 17 17 17 16 15 16 16 16 16 16 16 15 15 15 15 15 16 16 16 16 16 16 16 16 16 16 16 16 16 16 16 16 15 15 15 14 14 13 13 12 12 11 11 12 12
19 19 19 19 19 19 19 19 17 17 17 17 17 17 17 16 16 17 17 17 17 17 17 18 18 18 17 17 18 18 18 18 18 18 18 17 17 16 16 16 15 15 15 15 14 14 13 14 14
Wind_Direction
85 100 110 92 87 79 44 28 10 340 354 354 357 344 323 320 311 306 323 320 317 309 306 292 274 276 278 274 270 264 261 259 258 249 243 239 239 247 251 245 241 239 239 240 240 240 243 246 241
56 64 88 72 60 24 360 359 1 342 334 332 331 331 321 316 312 315 320 323 327 320 314 297 276 277 276 274 265 261 257 258 256 250 243 239 241 243 246 244 241 241 241 240 242 241 240 244 242
29 48 60 48 37 359 351 341 324 331 328 318 323 324 317 315 319 324 322 318 323 319 318 310 291 285 281 276 271 265 254 253 253 248 245 246 246 247 245 246 245 246 245 244 244 241 243 244 244
39 38 38 30 2 336 328 316 311 322 321 316 316 318 316 317 320 323 323 321 323 325 329 333 323 302 293 286 277 266 253 253 250 250 252 252 251 248 252 249 249 250 250 250 249 245 245 248 248
44 30 22 18 330 323 319 311 304 309 315 314 313 315 315 320 323 323 327 327 325 325 324 327 320 308 296 286 280 269 258 256 255 257 258 258 255 252 255 255 255 253 252 253 256 255 253 251 250
45 32 22 351 318 315 313 309 305 309 309 313 316 316 311 311 316 320 326 329 326 319 317 318 316 304 295 284 279 271 261 264 260 258 259 260 260 258 261 262 259 258 257 256 256 258 257 254 252
35 17 358 336 316 313 314 311 307 306 305 308 312 314 314 311 311 314 320 324 324 318 313 311 307 299 293 290 286 279 269 267 266 266 263 264 264 263 263 265 265 264 260 261 261 260 260 257 254
22 4 348 335 321 315 317 313 309 304 305 305 307 312 315 314 315 313 315 319 322 320 313 308 303 297 291 285 288 288 282 276 274 274 272 272 274 272 269 267 268 266 266 267 264 263 262 260 255
4 358 351 339 327 319 316 311 309 307 304 304 309 314 315 314 317 319 321 321 321 319 314 308 303 297 292 289 289 290 288 277 278 281 276 275 278 278 276 270 270 271 270 268 266 263 259 258 252
346 341 335 335 331 320 313 308 308 305 307 310 310 309 312 314 318 323 325 322 319 319 317 312 306 298 292 288 288 291 291 281 280 283 280 277 277 276 276 275 274 273 271 270 268 266 264 261 254
334 330 327 327 327 323 315 308 308 308 313 317 316 316 316 317 320 321 323 323 321 318 316 312 304 298 296 293 288 290 289 285 284 287 284 278 276 275 275 276 277 275 275 275 272 269 266 264 257
329 327 324 320 322 318 309 305 306 313 318 322 322 324 323 321 319 316 317 320 321 321 316 312 306 302 300 296 289 289 289 284 285 287 286 282 277 276 272 273 277 277 278 278 276 275 270 261 256
318 321 326 323 319 319 309 301 306 312 316 318 320 321 322 320 316 315 317 317 317 317 318 317 312 305 302 297 293 293 291 287 284 283 282 283 280 279 275 271 276 280 280 280 280 276 267 258 254
298 311 319 320 321 325 318 310 307 311 312 311 314 317 316 316 313 315 318 319 317 316 317 319 316 312 309 301 295 296 297 294 287 284 283 284 285 282 280 277 276 281 280 281 278 276 264 257 257
290 306 318 314 316 317 309 303 305 304 305 308 312 314 315 313 309 312 314 318 318 317 318 318 318 317 314 307 299 296 296 296 292 289 284 286 288 283 288 284 281 284 283 279 273 267 263 260 261
279 292 300 303 303 303 304 300 301 301 303 306 307 308 311 311 306 308 310 313 315 315 317 317 317 318 316 311 307 303 300 299 294 298 291 290 296 293 290 291 289 287 285 282 276 272 268 267 262
273 279 286 293 291 294 297 298 300 299 301 303 302 304 308 309 305 306 308 310 311 312 315 317 317 315 314 310 306 306 304 304 302 301 293 292 300 300 299 297 296 290 285 286 284 280 274 269 266
265 270 280 289 291 292 296 297 297 296 299 300 299 302 305 304 303 302 302 304 304 309 312 313 314 312 313 312 308 303 300 299 298 298 296 296 298 300 303 304 300 292 286 284 285 282 278 274 270
261 267 274 283 283 286 290 293 295 295 298 295 295 298 300 298 299 300 300 301 302 306 312 314 312 313 310 308 305 299 299 296 295 293 298 300 300 300 303 306 303 289 285 283 283 282 280 276 274
261 266 271 277 281 283 289 290 288 289 295 293 292 294 295 294 292 296 300 301 301 301 304 309 311 312 309 307 306 300 299 296 295 296 300 301 303 304 304 304 298 290 286 284 286 284 278 274 272
260 261 266 273 280 282 286 287 285 285 286 286 287 288 289 290 291 292 296 298 299 300 301 304 306 306 307 307 306 301 297 296 292 293 296 299 300 303 303 303 299 292 288 285 285 284 280 277 272
260 262 267 272 277 279 281 282 282 282 282 281 281 282 285 286 286 287 291 294 296 298 302 303 301 301 303 304 303 301 298 295 291 291 294 297 300 301 303 304 300 295 291 287 286 282 280 279 274
266 268 270 271 272 274 276 279 278 277 279 280 279 278 281 285 287 287 289 291 294 297 299 299 299 296 296 298 300 298 298 297 293 292 294 297 301 302 304 306 301 297 291 287 286 283 281 278 274
265 267 270 272 272 275 275 276 275 274 277 278 277 277 279 284 286 285 286 289 292 294 295 296 296 294 292 292 292 292 294 295 294 292 292 296 299 301 303 305 301 296 292 286 283 283 280 278 275
264 267 272 274 275 277 277 277 275 273 273 277 277 277 280 284 285 283 284 288 290 292 292 291 291 291 289 290 289 287 289 290 293 293 292 293 293 294 296 298 298 294 290 286 283 283 281 278 275
264 266 270 273 276 277 277 278 277 275 273 274 275 278 281 281 282 284 284 286 290 289 288 289 289 289 288 287 287 286 285 286 291 294 294 293 292 290 291 292 292 291 287 285 284 282 280 280 277
261 264 268 270 272 275 277 277 277 276 274 274 273 275 278 279 281 284 286 287 289 288 288 289 290 288 287 287 286 286 282 283 287 291 294 294 292 291 290 289 288 287 284 282 281 279 279 279 277
263 266 268 269 271 274 276 275 276 276 277 274 272 273 276 278 281 284 287 288 288 288 288 289 290 290 289 287 286 285 284 283 284 287 290 292 289 287 286 285 283 284 284 282 280 279 277 277 276
266 267 268 269 270 275 277 274 274 275 274 273 273 275 276 277 280 284 287 288 288 287 288 289 289 290 289 286 285 284 284 284 284 285 286 286 285 282 283 282 280 280 281 280 276 276 278 278 277
266 268 269 271 272 271 273 272 270 272 274 275 274 275 277 277 280 282 284 286 287 286 287 288 288 288 288 286 285 284 284 284 283 282 283 283 282 281 279 280 279 278 278 279 277 274 275 277 277
Height
5887 5887 5887 5888 5889 5888 5887 5887 5886 5886 5885 5885 5884 5883 5883 5882 5882 5884 5880 5878 5877 5877 5875 5875 5874 5874 5874 5873 5873 5873 5873 5873 5872 5872 5872 5872 5872 5872 5871 5871 5871 5871 5872 5872 5873 5873 5873 5873 5873
5887 5887 5888 5888 5888 5887 5887 5886 5886 5885 5885 5884 5883 5883 5882 5881 5881 5880 5878 5878 5877 5876 5874 5873 5873 5873 5873 5872 5872 5872 5871 5871 5871 5871 5871 5871 5871 5870 5870 5870 5870 5870 5870 5871 5871 5871 5871 5871 5872
5887 5887 5888 5888 5887 5887 5887 5886 5885 5885 5884 5883 5883 5882 5882 5881 5880 5879 5878 5877 5876 5875 5874 5872 5872 5872 5871 5871 5870 5870 5870 5870 5870 5870 5869 5869 5869 5869 5869 5868 5868 5868 5869 5869 5869 5869 5869 5869 5870
5887 5888 5888 5888 5887 5887 5886 5885 5885 5884 5883 5883 5882 5882 5881 5880 5879 5878 5877 5876 5875 5874 5873 5872 5871 5871 5870 5870 5869 5869 5868 5869 5869 5868 5868 5868 5868 5868 5868 5867 5867 5867 5867 5867 5867 5867 5867 5867 5867
5887 5888 5888 5887 5886 5886 5885 5885 5884 5883 5883 5882 5881 5881 5880 5879 5878 5877 5876 5875 5874 5873 5872 5872 5871 5870 5869 5869 5868 5868 5868 5868 5867 5867 5867 5867 5866 5866 5866 5866 5866 5865 5865 5865 5865 5865 5865 5865 5865
5888 5887 5888 5887 5886 5885 5885 5884 5883 5883 5882 5881 5881 5880 5879 5878 5877 5876 5875 5875 5874 5873 5872 5871 5870 5870 5869 5868 5868 5867 5867 5866 5866 5866 5865 5865 5865 5865 5864 5864 5864 5864 5864 5863 5863 5863 5863 5863 5863
5888 5887 5887 5886 5885 5885 5884 5883 5883 5882 5881 5881 5880 5879 5878 5877 5877 5876 5875 5874 5873 5872 5871 5870 5870 5869 5868 5868 5867 5866 5866 5865 5865 5864 5864 5864 5863 5863 5863 5862 5862 5862 5862 5861 5861 5861 5860 5860 5861
5887 5887 5886 5885 5885 5884 5884 5882 5882 5881 5881 5880 5879 5878 5878 5877 5876 5875 5874 5873 5872 5871 5870 5869 5869 5868 5867 5867 5866 5865 5864 5864 5863 5863 5863 5862 5862 5861 5861 5860 5860 5860 5859 5859 5859 5858 5858 5858 5858
5886 5888 5885 5885 5884 5884 5882 5882 5881 5880 5880 5879 5878 5878 5877 5876 5875 5874 5873 5872 5871 5871 5870 5869 5868 5867 5866 5866 5865 5864 5863 5863 5862 5862 5861 5861 5860 5860 5859 5858 5858 5857 5857 5857 5856 5855 5855 5855 5855
5886 5886 5885 5884 5884 5883 5882 5881 5881 5880 5879 5878 5878 5877 5876 5875 5874 5873 5873 5872 5871 5870 5869 5868 5867 5866 5865 5864 5864 5863 5862 5861 5861 5860 5860 5859 5859 5858 5857 5857 5856 5855 5855 5854 5853 5853 5853 5852 5853
5885 5885 5884 5883 5882 5882 5881 5880 5880 5879 5879 5878 5877 5876 5875 5874 5874 5873 5872 5871 5870 5869 5868 5867 5866 5865 5864 5863 5862 5862 5861 5860 5860 5859 5858 5858 5857 5857 5856 5855 5854 5854 5853 5852 5851 5850 5850 5850 5850
5884 5883 5883 5882 5881 5881 5880 5880 5879 5878 5878 5877 5876 5875 5874 5874 5873 5872 5871 5870 5869 5868 5867 5866 5865 5864 5863 5862 5861 5861 5860 5859 5858 5857 5857 5856 5856 5855 5854 5853 5853 5852 5851 5849 5848 5847 5847 5847 5847
5883 5883 5882 5881 5880 5880 5879 5879 5878 5878 5877 5876 5876 5875 5874 5873 5872 5871 5870 5869 5868 5867 5866 5865 5864 5863 5862 5861 5860 5859 5859 5858 5857 5856 5855 5855 5854 5853 5852 5851 5851 5850 5849 5847 5846 5844 5843 5844 5844
5882 5882 5881 5880 5880 5879 5879 5878 5878 5877 5876 5876 5875 5874 5873 5872 5871 5870 5870 5869 5867 5866 5865 5864 5863 5862 5861 5860 5859 5858 5857 5856 5855 5854 5854 5853 5852 5852 5851 5850 5849 5848 5847 5846 5844 5842 5841 5842 5842
5881 5881 5881 5880 5879 5878 5878 5878 5877 5876 5875 5875 5874 5873 5872 5871 5870 5870 5869 5868 5867 5866 5865 5863 5862 5861 5860 5859 5858 5857 5856 5855 5854 5853 5852 5851 5851 5850 5849 5848 5847 5846 5845 5844 5842 5841 5841 5841 5841
5880 5880 5880 5879 5878 5878 5879 5878 5876 5875 5875 5874 5873 5872 5871 5870 5870 5869 5868 5867 5866 5865 5864 5862 5861 5860 5858 5857 5856 5855 5854 5853 5852 5851 5851 5850 5849 5848 5847 5846 5845 5844 5843 5842 5841 5840 5840 5839 5839
5879 5879 5878 5878 5877 5877 5877 5876 5875 5874 5874 5873 5872 5871 5870 5869 5869 5868 5867 5866 5865 5864 5862 5861 5860 5859 5857 5856 5855 5854 5853 5852 5851 5850 5849 5848 5847 5846 5845 5844 5843 5842 5841 5840 5839 5838 5838 5838 5837
5877 5877 5877 5876 5876 5875 5875 5874 5874 5873 5872 5872 5871 5870 5869 5868 5867 5866 5865 5864 5863 5862 5861 5860 5859 5857 5856 5855 5854 5852 5851 5850 5849 5848 5847 5846 5845 5844 5844 5842 5841 5840 5839 5838 5837 5837 5836 5835 5835
5875 5875 5875 5875 5874 5874 5874 5873 5872 5871 5871 5870 5869 5869 5868 5867 5866 5865 5864 5863 5862 5861 5860 5858 5857 5856 5855 5853 5852 5851 5850 5849 5848 5847 5846 5845 5844 5843 5842 5841 5839 5838 5837 5836 5835 5834 5834 5833 5833
5872 5873 5873 5873 5872 5872 5872 5871 5870 5870 5869 5868 5868 5867 5866 5865 5865 5864 5863 5862 5861 5860 5858 5857 5856 5855 5853 5852 5850 5849 5848 5847 5846 5845 5844 5843 5842 5841 5840 5839 5837 5836 5835 5834 5833 5832 5832 5831 5830
5870 5870 5870 5870 5870 5869 5870 5870 5869 5868 5867 5867 5866 5865 5864 5864 5863 5862 5861 5860 5859 5858 5857 5856 5854 5853 5852 5850 5849 5848 5847 5845 5844 5843 5842 5841 5840 5839 5838 5836 5835 5834 5833 5832 5831 5830 5829 5829 5828
5867 5867 5867 5867 5867 5867 5868 5867 5867 5866 5865 5865 5864 5863 5862 5862 5861 5860 5859 5858 5857 5856 5855 5854 5853 5851 5850 5849 5847 5846 5845 5844 5843 5842 5841 5839 5838 5837 5835 5834 5833 5832 5830 5830 5829 5828 5827 5826 5826
5864 5864 5864 5864 5864 5865 5865 5865 5865 5863 5863 5862 5862 5861 5860 5860 5859 5858 5857 5856 5855 5854 5853 5852 5851 5849 5848 5847 5845 5844 5843 5842 5841 5840 5839 5837 5836 5835 5833 5832 5831 5829 5828 5827 5826 5825 5825 5824 5824
5861 5861 5861 5861 5861 5862 5862 5862 5862 5861 5860 5859 5859 5858 5857 5857 5856 5855 5855 5854 5853 5852 5850 5849 5848 5847 5846 5844 5843 5842 5840 5840 5839 5837 5836 5835 5834 5832 5831 5829 5828 5827 5826 5825 5824 5823 5823 5822 5821
5858 5859 5859 5859 5859 5859 5859 5858 5859 5858 5857 5856 5856 5855 5854 5854 5853 5852 5852 5851 5850 5849 5848 5847 5845 5844 5843 5842 5840 5839 5838 5837 5836 5835 5834 5832 5831 5830 5828 5827 5826 5824 5823 5822 5821 5821 5820 5819 5819
5855 5856 5857 5857 5856 5856 5855 5855 5855 5854 5853 5853 5852 5852 5851 5851 5850 5849 5849 5848 5847 5846 5845 5844 5842 5841 5840 5839 5837 5836 5835 5834 5833 5832 5830 5829 5828 5827 5825 5824 5823 5822 5820 5819 5819 5818 5818 5817 5816
5851 5851 5852 5852 5852 5852 5852 5852 5851 5850 5850 5849 5849 5848 5848 5847 5846 5846 5845 5844 5843 5842 5841 5840 5839 5838 5836 5835 5834 5832 5831 5830 5829 5828 5827 5825 5824 5823 5822 5821 5820 5819 5817 5817 5816 5815 5815 5814 5814
5848 5847 5848 5848 5848 5848 5848 5848 5847 5846 5846 5845 5845 5844 5844 5843 5843 5842 5841 5840 5839 5838 5837 5836 5835 5834 5832 5831 5830 5829 5827 5826 5825 5824 5823 5822 5820 5819 5818 5817 5816 5815 5814 5813 5813 5812 5812 5811 5811
5843 5843 5843 5843 5843 5844 5843 5845 5843 5842 5841 5841 5841 5840 5839 5839 5838 5838 5837 5836 5835 5834 5833 5832 5831 5830 5828 5827 5826 5824 5823 5822 5821 5820 5818 5817 5816 5815 5814 5813 5812 5811 5810 5810 5809 5809 5808 5808 5807
5837 5838 5838 5839 5838 5838 5838 5841 5838 5837 5836 5836 5836 5835 5835 5834 5834 5833 5832 5831 5830 5829 5828 5827 5826 5825 5824 5822 5821 5820 5818 5817 5816 5815 5813 5812 5812 5811 5810 5809 5808 5807 5806 5805 5805 5805 5805 5804 5804